Total_Precipitation_Accumulation
0.03 0.03 0.03 0.02 0.01 0.01 0.01 0.01 0.01 0.00 0.01 0.00 0.00 0.01 0.01 0.01 0.00 0.00 0.00 0.00 0.00 0.00 0.00 0.00 0.00 0.00 0.00 0.00 0.00 0.00 0.00 0.00 0.00 0.03 0.11 0.16 0.28 0.33 0.20 0.06 0.11 0.26 0.19 0.28 0.46
0.03 0.04 0.04 0.03 0.03 0.02 0.01 0.01 0.01 0.01 0.01 0.00 0.00 0.01 0.01 0.02 0.00 0.00 0.00 0.00 0.00 0.00 0.00 0.00 0.00 0.00 0.00 0.00 0.00 0.00 0.00 0.00 0.00 0.06 0.33 0.29 0.15 0.03 0.01 0.01 0.20 0.53 0.53 0.32 0.33
0.04 0.04 0.05 0.04 0.02 0.02 0.01 0.01 0.01 0.01 0.01 0.00 0.00 0.01 0.02 0.01 0.00 0.00 0.00 0.00 0.00 0.00 0.00 0.00 0.00 0.00 0.00 0.00 0.00 0.00 0.00 0.00 0.00 0.00 0.00 0.01 0.01 0.00 0.00 0.19 0.52 0.67 0.50 0.42 0.34
0.03 0.03 0.03 0.03 0.02 0.01 0.01 0.01 0.00 0.01 0.01 0.01 0.00 0.01 0.01 0.00 0.00 0.00 0.00 0.00 0.00 0.00 0.00 0.00 0.00 0.00 0.00 0.00 0.00 0.00 0.00 0.00 0.00 0.00 0.00 0.00 0.00 0.01 0.04 0.27 0.22 0.26 0.69 0.62 0.49
0.06 0.05 0.04 0.03 0.02 0.02 0.02 0.01 0.00 0.01 0.01 0.00 0.01 0.02 0.01 0.00 0.00 0.00 0.00 0.00 0.00 0.00 0.00 0.00 0.00 0.00 0.00 0.00 0.00 0.00 0.00 0.00 0.00 0.00 0.00 0.00 0.01 0.02 0.08 0.45 0.51 0.27 0.32 0.45 0.50
0.15 0.11 0.08 0.07 0.06 0.04 0.02 0.00 0.01 0.01 0.01 0.01 0.01 0.03 0.01 0.00 0.00 0.00 0.00 0.00 0.00 0.00 0.00 0.00 0.00 0.00 0.00 0.00 0.00 0.00 0.00 0.00 0.00 0.00 0.00 0.00 0.03 0.09 0.18 0.77 0.30 0.15 0.08 0.17 0.26
0.21 0.18 0.18 0.16 0.14 0.11 0.05 0.01 0.00 0.01 0.01 0.01 0.02 0.04 0.01 0.00 0.00 0.00 0.00 0.00 0.00 0.00 0.00 0.00 0.00 0.00 0.00 0.00 0.00 0.00 0.00 0.00 0.00 0.00 0.00 0.01 0.03 0.13 0.21 0.39 0.13 0.05 0.05 0.06 0.11
0.40 0.37 0.31 0.26 0.17 0.09 0.04 0.01 0.00 0.01 0.01 0.01 0.02 0.03 0.00 0.00 0.00 0.00 0.00 0.00 0.00 0.00 0.00 0.00 0.00 0.00 0.00 0.00 0.00 0.00 0.00 0.00 0.00 0.00 0.00 0.02 0.17 0.29 0.13 0.09 0.07 0.04 0.01 0.02 0.03
0.36 0.29 0.25 0.18 0.17 0.16 0.11 0.03 0.00 0.01 0.01 0.01 0.01 0.02 0.00 0.00 0.00 0.00 0.00 0.00 0.00 0.00 0.00 0.00 0.00 0.00 0.00 0.00 0.00 0.00 0.00 0.00 0.00 0.00 0.00 0.01 0.03 0.15 0.07 0.09 0.12 0.10 0.04 0.00 0.02
0.19 0.18 0.15 0.13 0.14 0.16 0.11 0.07 0.02 0.00 0.00 0.00 0.02 0.01 0.00 0.00 0.00 0.00 0.00 0.01 0.02 0.00 0.00 0.00 0.00 0.00 0.00 0.00 0.00 0.00 0.00 0.00 0.00 0.00 0.00 0.00 0.00 0.09 0.05 0.03 0.09 0.15 0.10 0.02 0.01
0.14 0.11 0.12 0.13 0.15 0.16 0.09 0.06 0.07 0.09 0.04 0.01 0.01 0.01 0.00 0.00 0.00 0.00 0.00 0.00 0.01 0.01 0.01 0.03 0.00 0.00 0.01 0.00 0.00 0.00 0.00 0.00 0.00 0.00 0.00 0.00 0.00 0.00 0.01 0.11 0.10 0.14 0.07 0.01 0.00
0.15 0.14 0.13 0.11 0.15 0.14 0.04 0.05 0.03 0.11 0.16 0.03 0.01 0.00 0.00 0.00 0.00 0.00 0.00 0.01 0.02 0.04 0.05 0.04 0.04 0.00 0.00 0.00 0.00 0.02 0.02 0.00 0.00 0.00 0.00 0.00 0.00 0.00 0.00 0.00 0.02 0.03 0.03 0.02 0.00
0.16 0.16 0.17 0.15 0.14 0.07 0.01 0.01 0.01 0.07 0.22 0.03 0.00 0.00 0.00 0.01 0.00 0.00 0.00 0.00 0.05 0.11 0.06 0.09 0.03 0.00 0.00 0.00 0.01 0.01 0.01 0.00 0.00 0.00 0.02 0.02 0.01 0.00 0.00 0.01 0.01 0.01 0.01 0.01 0.01
0.21 0.19 0.22 0.26 0.13 0.04 0.03 0.01 0.03 0.21 0.42 0.04 0.02 0.03 0.04 0.07 0.01 0.00 0.00 0.00 0.07 0.09 0.09 0.21 0.04 0.02 0.03 0.02 0.01 0.06 0.00 0.00 0.02 0.08 0.10 0.05 0.06 0.00 0.00 0.00 0.00 0.00 0.00 0.01 0.03
0.30 0.24 0.28 0.27 0.15 0.10 0.04 0.01 0.13 0.37 0.50 0.05 0.11 0.05 0.07 0.05 0.01 0.06 0.00 0.00 0.02 0.07 0.20 0.33 0.21 0.24 0.22 0.05 0.02 0.07 0.00 0.01 0.01 0.02 0.08 0.07 0.12 0.03 0.01 0.01 0.00 0.00 0.01 0.00 0.01
0.37 0.32 0.38 0.31 0.14 0.03 0.01 0.09 0.30 0.80 0.37 0.03 0.14 0.10 0.14 0.09 0.01 0.02 0.01 0.00 0.00 0.05 0.06 0.10 0.03 0.06 0.05 0.00 0.01 0.02 0.02 0.03 0.05 0.09 0.22 0.04 0.10 0.05 0.03 0.11 0.09 0.14 0.08 0.04 0.04
0.44 0.48 0.48 0.22 0.17 0.14 0.21 0.55 0.98 0.63 0.05 0.03 0.08 0.25 0.16 0.20 0.22 0.05 0.02 0.00 0.00 0.03 0.07 0.07 0.06 0.05 0.03 0.12 0.05 0.05 0.04 0.14 0.31 0.24 0.12 0.06 0.07 0.03 0.18 0.25 0.35 0.32 0.30 0.30 0.11
0.69 0.83 0.79 0.41 0.20 0.26 0.59 1.36 1.07 0.29 0.02 0.00 0.11 0.23 0.24 0.17 0.24 0.05 0.02 0.02 0.02 0.02 0.04 0.05 0.19 0.07 0.05 0.27 0.12 0.05 0.05 0.10 0.36 0.22 0.19 0.12 0.11 0.12 0.40 0.31 0.65 0.33 0.59 0.42 0.19
1.61 1.80 1.47 0.60 0.45 0.74 1.41 1.56 0.50 0.19 0.01 0.00 0.01 0.10 0.11 0.11 0.45 0.54 0.44 0.13 0.10 0.06 0.20 0.14 0.18 0.08 0.04 0.05 0.07 0.08 0.08 0.05 0.20 0.23 0.32 0.12 0.14 0.28 0.28 0.15 0.61 0.41 0.52 0.77 0.28
1.98 2.03 1.22 0.47 0.90 1.61 2.30 1.11 0.10 0.03 0.01 0.01 0.02 0.02 0.13 0.08 0.23 0.85 0.41 0.17 0.04 0.02 0.10 0.19 0.23 0.09 0.12 0.08 0.05 0.04 0.04 0.10 0.23 0.54 0.43 0.18 0.23 0.43 0.33 0.21 0.44 0.93 0.64 0.84 0.48
3.35 3.23 1.67 0.81 2.14 3.32 2.27 0.53 0.04 0.00 0.03 0.04 0.05 0.07 0.06 0.07 0.14 0.37 0.44 0.40 0.09 0.05 0.06 0.13 0.28 0.17 0.18 0.26 0.06 0.04 0.07 0.10 0.21 0.24 0.46 0.60 0.67 0.87 0.62 0.43 0.48 0.63 1.17 0.74 0.77
4.01 3.14 1.91 1.30 2.86 2.56 0.91 0.16 0.07 0.03 0.02 0.06 0.05 0.08 0.19 0.21 0.11 0.11 0.22 0.34 0.23 0.25 0.10 0.09 0.20 0.17 0.04 0.10 0.04 0.05 0.08 0.11 0.36 0.35 0.48 0.94 1.69 1.11 0.73 0.61 0.59 0.69 1.16 1.22 0.90
4.26 3.26 3.49 2.17 1.85 0.97 0.33 0.20 0.13 0.09 0.04 0.07 0.08 0.06 0.13 0.18 0.15 0.17 0.15 0.13 0.17 0.20 0.25 0.16 0.37 0.55 0.35 0.17 0.11 0.13 0.06 0.13 0.27 0.27 0.49 1.09 1.66 1.57 1.06 0.81 0.78 1.09 0.96 0.86 1.00
4.82 4.82 5.80 4.38 1.27 0.38 0.34 0.39 0.30 0.11 0.10 0.07 0.05 0.07 0.08 0.09 0.07 0.15 0.19 0.16 0.06 0.10 0.15 0.18 0.24 0.51 0.79 0.61 0.52 0.28 0.08 0.07 0.16 0.54 0.73 0.92 1.75 1.50 1.88 1.63 1.33 1.06 1.17 1.04 0.98
6.44 3.52 2.20 2.81 1.67 0.36 0.27 0.38 0.36 0.34 0.20 0.16 0.21 0.14 0.11 0.18 0.17 0.19 0.20 0.21 0.14 0.12 0.21 0.28 0.26 0.17 0.13 0.17 0.66 0.50 0.18 0.15 0.26 0.19 0.45 0.73 0.69 1.02 1.77 1.97 1.82 1.76 1.25 1.10 0.98
6.46 2.63 1.28 0.64 0.49 0.79 0.75 0.47 0.34 0.29 0.35 0.33 0.29 0.20 0.22 0.29 0.23 0.22 0.20 0.35 0.25 0.17 0.26 0.43 0.45 0.19 0.11 0.09 0.42 0.44 0.15 0.11 0.14 0.17 0.33 0.49 0.45 1.04 0.82 0.56 0.53 0.64 0.95 0.83 0.95
4.94 1.41 1.13 1.20 0.97 1.21 0.86 0.37 0.28 0.30 0.44 0.33 0.30 0.40 0.42 0.25 0.23 0.24 0.21 0.19 0.18 0.16 0.26 0.40 0.62 0.77 0.54 0.17 0.70 1.07 0.75 0.50 0.36 0.45 0.31 0.42 0.62 0.80 0.43 0.19 0.13 0.11 0.19 0.38 0.46